Tracking 32414 objects as of 4-Dec-2025
HD Live streaming from Space Station
objects crossing your sky now

SL-6 R/B(2)

Track SL-6 R/B(2) now!


NORAD ID: 13897
Int'l Code: 1983-019D
Perigee: 1,255.3 km
Apogee: 39,696.7 km
Inclination: 62.7 °
Period: 729.6 minutes
Semi major axis: 26846 km
RCS: 8.0304 m2 (large)
Launch date: March 16, 1983
Source: Commonwealth of Independent States (former USSR) (CIS)
Launch site: PLESETSK MISSILE AND SPACE COMPLEX (PKMTR)

Note: This is a ROCKET BODY
Your satellite tracking list
Your tracking list is empty




NASA's NSSDC Master Catalog

Two Line Element Set (TLE):
1 13897U 83019D   25330.04238060 -.00000834  00000-0  00000-0 0  9991
2 13897  62.6812 227.4107 7159357 276.5837  13.6998  1.97360404306620
Source of the keplerian elements: AFSPC